• In Kazakhstan
  • List of Countries
  • For 7 days
  • Water Temperature
  • Satellite Maps
  • Weather Map
  • News
  • Weather Widgets
  • user-avatar
    Login

    Hourly Weather Annapolis

    Today, 21 September, Thursday

    Time Temperature Precipitation Wind Pressure Humidity
    00:00 +25°C° 0 mm 1 mps 760 mmHg 77%
    01:00 +24°C° 0 mm 1 mps 760 mmHg 78%
    02:00 +24°C° 0 mm 1 mps 760 mmHg 79%
    03:00 +23°C° 0 mm 1 mps 760 mmHg 81%
    04:00 +23°C° 0 mm 1 mps 761 mmHg 82%
    05:00 +23°C° 0 mm 2 mps 761 mmHg 81%
    06:00 +24°C° 0 mm 2 mps 761 mmHg 81%
    07:00 +24°C° 0 mm 2 mps 762 mmHg 80%
    08:00 +26°C° 0 mm 2 mps 762 mmHg 74%
    09:00 +27°C° 0 mm 2 mps 762 mmHg 67%
    10:00 +29°C° 0 mm 3 mps 762 mmHg 60%
    11:00 +30°C° 0 mm 3 mps 762 mmHg 57%
    12:00 +31°C° 0 mm 3 mps 761 mmHg 53%
    13:00 +31°C° 0 mm 2 mps 761 mmHg 50%
    14:00 +31°C° 0 mm 2 mps 761 mmHg 50%
    15:00 +31°C° 0 mm 2 mps 761 mmHg 51%
    16:00 +31°C° 0 mm 2 mps 760 mmHg 51%
    17:00 +30°C° 0 mm 2 mps 761 mmHg 56%
    18:00 +28°C° 0 mm 1 mps 761 mmHg 61%
    19:00 +27°C° 0 mm 1 mps 761 mmHg 66%
    20:00 +27°C° 0 mm 1 mps 761 mmHg 67%
    21:00 +26°C° 0 mm 1 mps 761 mmHg 68%
    22:00 +26°C° 0 mm 1 mps 762 mmHg 69%
    23:00 +26°C° 0 mm 1 mps 762 mmHg 70%

    Tomorrow, 22 September, Friday

    Time Temperature Precipitation Wind Pressure Humidity
    00:00 +25°C° 0 mm 2 mps 762 mmHg 71%
    01:00 +25°C° 0 mm 2 mps 762 mmHg 72%
    02:00 +25°C° 0 mm 2 mps 762 mmHg 73%
    03:00 +24°C° 0 mm 2 mps 762 mmHg 74%
    04:00 +24°C° 0 mm 2 mps 762 mmHg 75%
    05:00 +24°C° 0 mm 2 mps 762 mmHg 74%
    06:00 +24°C° 0 mm 2 mps 762 mmHg 73%
    07:00 +22°C° 0 mm 3 mps 762 mmHg 73%
    08:00 +25°C° 0 mm 3 mps 763 mmHg 64%
    09:00 +26°C° 0 mm 3 mps 763 mmHg 55%
    10:00 +27°C° 0 mm 3 mps 763 mmHg 46%
    11:00 +28°C° 0 mm 3 mps 762 mmHg 46%
    12:00 +29°C° 0 mm 3 mps 762 mmHg 45%
    13:00 +30°C° 0 mm 3 mps 762 mmHg 44%
    14:00 +30°C° 0 mm 3 mps 761 mmHg 46%
    15:00 +30°C° 0 mm 3 mps 761 mmHg 48%
    16:00 +30°C° 0 mm 3 mps 761 mmHg 50%
    17:00 +29°C° 0 mm 3 mps 761 mmHg 54%
    18:00 +27°C° 0 mm 2 mps 761 mmHg 59%
    19:00 +26°C° 0 mm 2 mps 761 mmHg 63%
    20:00 +25°C° 0 mm 2 mps 761 mmHg 63%
    21:00 +25°C° 0 mm 2 mps 762 mmHg 63%
    22:00 +24°C° 0 mm 2 mps 762 mmHg 63%
    23:00 +24°C° 0 mm 2 mps 762 mmHg 63%

    Day after tomorrow, 23 September, Saturday

    Time Temperature Precipitation Wind Pressure Humidity
    00:00 +23°C° 0 mm 2 mps 762 mmHg 62%
    01:00 +23°C° 0 mm 2 mps 762 mmHg 61%
    02:00 +23°C° 0 mm 2 mps 762 mmHg 61%
    03:00 +22°C° 0 mm 3 mps 761 mmHg 60%
    04:00 +22°C° 0 mm 3 mps 761 mmHg 60%
    05:00 +22°C° 0 mm 3 mps 762 mmHg 60%
    06:00 +21°C° 0 mm 3 mps 762 mmHg 61%
    07:00 +21°C° 0 mm 3 mps 762 mmHg 62%
    08:00 +24°C° 0 mm 3 mps 763 mmHg 60%
    09:00 +25°C° 0 mm 4 mps 763 mmHg 58%
    10:00 +27°C° 0 mm 4 mps 763 mmHg 56%
    11:00 +28°C° 0 mm 4 mps 763 mmHg 55%
    12:00 +29°C° 0 mm 4 mps 762 mmHg 54%
    13:00 +30°C° 0 mm 4 mps 762 mmHg 53%
    14:00 +30°C° 0 mm 4 mps 762 mmHg 54%
    15:00 +30°C° 0 mm 3 mps 761 mmHg 55%
    16:00 +30°C° 0 mm 3 mps 761 mmHg 55%
    17:00 +29°C° 0 mm 3 mps 761 mmHg 59%
    18:00 +28°C° 0 mm 2 mps 762 mmHg 64%
    19:00 +26°C° 0 mm 2 mps 762 mmHg 68%
    20:00 +26°C° 0 mm 2 mps 762 mmHg 68%
    21:00 +26°C° 0 mm 2 mps 762 mmHg 69%
    22:00 +25°C° 0 mm 2 mps 762 mmHg 69%
    23:00 +25°C° 0 mm 2 mps 762 mmHg 70%

    24 September, Sunday

    Time Temperature Precipitation Wind Pressure Humidity
    00:00 +24°C° 0 mm 2 mps 762 mmHg 70%
    01:00 +24°C° 0 mm 2 mps 762 mmHg 70%
    02:00 +23°C° 0 mm 2 mps 762 mmHg 71%
    03:00 +23°C° 0 mm 2 mps 762 mmHg 73%
    04:00 +23°C° 0 mm 2 mps 762 mmHg 74%
    05:00 +23°C° 0 mm 2 mps 762 mmHg 74%
    06:00 +22°C° 0 mm 3 mps 762 mmHg 73%
    07:00 +22°C° 0 mm 3 mps 762 mmHg 73%
    08:00 +25°C° 0 mm 3 mps 762 mmHg 66%
    09:00 +27°C° 0 mm 3 mps 762 mmHg 60%
    10:00 +28°C° 0 mm 3 mps 762 mmHg 53%
    11:00 +29°C° 0 mm 3 mps 762 mmHg 50%
    12:00 +30°C° 0 mm 3 mps 761 mmHg 46%
    13:00 +33°C° 0 mm 3 mps 761 mmHg 43%
    14:00 +31°C° 0 mm 3 mps 761 mmHg 44%
    15:00 +31°C° 0 mm 3 mps 760 mmHg 45%
    16:00 +31°C° 0 mm 3 mps 760 mmHg 46%
    17:00 +30°C° 0 mm 3 mps 760 mmHg 51%
    18:00 +28°C° 0 mm 2 mps 760 mmHg 56%
    19:00 +27°C° 0 mm 2 mps 760 mmHg 61%
    20:00 +26°C° 0 mm 2 mps 760 mmHg 64%
    21:00 +26°C° 0 mm 2 mps 760 mmHg 67%
    22:00 +25°C° 0 mm 2 mps 760 mmHg 70%
    23:00 +25°C° 0 mm 2 mps 760 mmHg 71%

    25 September, Monday

    Time Temperature Precipitation Wind Pressure Humidity
    00:00 +24°C° 0 mm 2 mps 760 mmHg 73%
    01:00 +24°C° 0 mm 2 mps 760 mmHg 75%
    02:00 +24°C° 0 mm 2 mps 760 mmHg 75%
    03:00 +24°C° 0 mm 2 mps 760 mmHg 75%
    04:00 +24°C° 0 mm 3 mps 760 mmHg 74%
    05:00 +24°C° 0 mm 3 mps 760 mmHg 76%
    06:00 +24°C° 0 mm 3 mps 761 mmHg 78%
    07:00 +24°C° 0 mm 3 mps 761 mmHg 80%
    08:00 +25°C° 0.1 mm 3 mps 761 mmHg 79%
    09:00 +25°C° 0.1 mm 3 mps 761 mmHg 79%
    10:00 +26°C° 0.1 mm 3 mps 761 mmHg 78%
    11:00 +26°C° 0.2 mm 2 mps 761 mmHg 80%
    12:00 +26°C° 0.2 mm 2 mps 761 mmHg 81%
    13:00 +26°C° 0.2 mm 1 mps 761 mmHg 82%
    14:00 +26°C° 0 mm 1 mps 761 mmHg 81%
    15:00 +27°C° 0 mm 1 mps 761 mmHg 79%
    16:00 +27°C° 0 mm 1 mps 760 mmHg 78%
    17:00 +26°C° 0 mm 1 mps 761 mmHg 81%
    18:00 +25°C° 0 mm 1 mps 761 mmHg 84%
    19:00 +25°C° 0 mm 1 mps 761 mmHg 87%
    20:00 +24°C° 0 mm 1 mps 761 mmHg 88%
    21:00 +24°C° 0 mm 1 mps 761 mmHg 90%
    22:00 +24°C° 0 mm 1 mps 761 mmHg 91%
    23:00 +24°C° 0 mm 1 mps 761 mmHg 92%

    26 September, Tuesday

    Time Temperature Precipitation Wind Pressure Humidity
    00:00 +24°C° 0 mm 1 mps 761 mmHg 93%
    01:00 +23°C° 0 mm 1 mps 761 mmHg 93%
    02:00 +23°C° 0 mm 1 mps 761 mmHg 94%
    03:00 +23°C° 0 mm 1 mps 761 mmHg 94%
    04:00 +23°C° 0 mm 1 mps 761 mmHg 94%
    05:00 +23°C° 0 mm 1 mps 761 mmHg 94%
    06:00 +24°C° 0 mm 1 mps 761 mmHg 94%
    07:00 +24°C° 0 mm 1 mps 761 mmHg 93%
    08:00 +25°C° 0.1 mm 2 mps 761 mmHg 88%
    09:00 +27°C° 0.1 mm 2 mps 761 mmHg 82%
    10:00 +28°C° 0.1 mm 2 mps 761 mmHg 77%
    11:00 +28°C° 0.5 mm 2 mps 760 mmHg 76%
    12:00 +29°C° 0.5 mm 2 mps 760 mmHg 75%
    13:00 +29°C° 0.5 mm 3 mps 759 mmHg 73%
    14:00 +29°C° 0.1 mm 3 mps 759 mmHg 73%
    15:00 +29°C° 0.1 mm 3 mps 758 mmHg 73%
    16:00 +29°C° 0.1 mm 2 mps 758 mmHg 73%
    17:00 +28°C° 0 mm 2 mps 758 mmHg 78%
    18:00 +27°C° 0 mm 2 mps 758 mmHg 83%
    19:00 +26°C° 0 mm 2 mps 758 mmHg 88%
    20:00 +25°C° 0 mm 2 mps 758 mmHg 90%
    21:00 +25°C° 0 mm 2 mps 758 mmHg 92%
    22:00 +24°C° 0 mm 2 mps 758 mmHg 93%
    23:00 +24°C° 0 mm 2 mps 757 mmHg 94%
    Show more